[[{"header":{"parameterUnit":"m.s-1","parameterCategory":1,"la1":30.2991,"la2":30.254,"lo1":-89.0895,"lo2":-89.0444,"dy":0.0017,"dx":0.0017,"nx":28,"ny":28,"refTime":"2024-03-23T09:00:00:Z","depth":0,"parameterNumber":2,"parameterNumberName":"U-component_of_WINDS"},"data":[0,0,0,0,0,0,0,0,0,0,0,0,0,0,0,0,0,0,0,0,0,0,0,0,0,0,0,0,0,0,0,0,0,0,0,0,0,0,0,0,0,0,0,0,0,0,0,0,0,0,0,0,0,0,0,0,0,0,4.6339,4.634,0,4.6426,4.6427,4.6428,4.6383,4.638,4.6378,4.6376,4.6464,4.6469,4.6473,0,0,0,0,0,0,0,0,0,0,0,0,0,4.6133,4.6137,4.6339,4.634,4.6341,4.6426,4.6427,4.6428,4.6383,4.638,4.6377,4.6375,4.6463,4.6468,4.6474,0,0,0,0,0,0,0,0,0,0,0,0,0,4.6222,4.6138,4.6338,4.6328,4.6328,4.6426,4.6427,4.6429,4.6384,4.638,4.6377,4.6373,4.6461,4.6468,4.6474,4.6586,0,0,4.6495,4.6498,0,0,0,0,0,0,0,0,4.6217,4.6229,4.6329,4.6329,4.6329,4.639,4.6387,4.6481,4.6385,4.6363,4.6376,4.6372,4.6442,4.645,4.6474,4.659,4.6594,4.6496,4.65,4.6503,4.6505,0,0,0,0,0,0,0,4.6211,4.6225,4.6373,4.633,4.6331,4.632,4.6329,4.6405,4.6421,4.6364,4.6361,4.6372,4.6442,4.6468,4.6476,4.6595,4.6495,4.6501,4.6506,4.6508,4.681,4.6814,0,0,0,0,0,0,4.6205,4.622,4.637,4.6376,4.6263,4.6327,4.6336,4.6374,4.642,4.6424,4.6375,4.637,4.6458,4.6468,4.6479,4.6615,4.6503,4.6509,4.6513,4.6806,4.6811,4.6815,0,0,0,0,0,0,4.6201,4.6219,4.6367,4.6297,4.6315,4.6334,4.6377,4.6378,4.6404,4.6428,4.6431,4.6399,4.6456,4.647,4.6561,4.6617,4.6512,4.6518,4.6802,4.6808,4.6813,4.6886,0,0,0,0,0,0,4.6195,4.6218,4.626,4.6299,4.6319,4.6447,4.638,4.6382,4.6416,4.641,4.6451,4.6455,4.6454,4.6551,4.6567,4.6625,4.6524,4.6797,4.6804,4.6811,4.6879,4.6894,4.6906,0,0,0,0,0,4.6188,4.6276,4.6262,4.628,4.6373,4.645,4.6462,4.646,4.642,4.6463,4.648,4.6453,4.6608,4.656,4.6579,4.6639,4.6793,4.6802,4.6811,4.6872,4.6891,4.6906,0,0,0,0,0,0,4.6242,4.6281,4.6266,4.6369,4.6407,4.6442,4.6496,4.6479,4.6528,4.652,4.6515,4.6525,4.662,4.6638,4.6584,4.6751,4.6695,4.6708,4.6735,4.6753,4.6767,4.676,4.6529,0,0,0,0,0,4.6266,4.6326,4.6356,4.6445,4.6464,4.6477,4.6511,4.6506,4.6545,4.656,4.6583,4.6622,4.6679,4.6717,4.6771,4.6881,4.6891,4.6932,4.6946,4.6957,4.6968,4.703,4.705,4.6845,4.6844,4.6844,0,0,4.6316,4.6345,4.6382,4.6456,4.6485,4.6548,4.6491,4.6559,4.6605,4.657,4.6658,4.6677,4.672,4.6821,4.6867,4.684,4.7028,4.6969,4.6977,4.6983,4.7042,4.7061,4.7078,4.6851,4.685,4.6849,0,0,4.6439,4.6466,4.6544,4.6575,4.6619,4.6628,4.6647,4.6686,4.6697,4.6785,4.6761,4.6817,4.6915,4.6948,4.6977,4.7116,4.7095,4.7134,4.7207,4.7267,4.7283,4.7298,4.7349,4.7367,4.7145,4.7145,4.7146,0,4.6495,4.6589,4.6586,4.6657,4.6691,4.6664,4.6743,4.6772,4.6832,4.6857,4.6825,4.6951,4.6977,4.7087,4.7122,4.7146,4.7168,4.7129,4.7281,4.7296,4.7309,4.7358,4.7377,4.715,4.7149,4.7149,4.7149,0,4.6657,4.6722,4.6779,4.684,4.688,4.6954,4.6964,4.7005,4.6998,4.701,4.7102,4.7133,4.7194,4.722,4.7213,4.733,4.7312,4.7281,4.7225,4.7333,4.7379,4.7397,4.7156,4.7155,4.7153,4.7152,0,0,4.6814,4.6874,4.6895,4.6923,4.6972,4.7023,4.7097,4.7158,4.7194,4.7237,4.73,4.7386,4.7359,4.7392,4.7389,4.7442,4.7552,4.7405,4.7406,4.7432,4.7686,4.7709,4.773,4.7539,4.7542,4.7545,4.7682,0,4.6942,4.7072,4.7073,4.7193,4.7254,4.7231,4.7296,4.7334,4.7348,4.7402,4.7418,4.7479,4.7438,4.7458,4.751,4.7528,4.7603,4.7518,4.7598,4.7601,4.7588,4.7754,4.7778,4.7906,4.77,4.7703,4.7705,0,4.7107,4.7157,4.7284,4.7326,4.7352,4.741,4.7468,4.752,4.7563,4.757,4.7609,4.7598,4.7675,4.7617,4.7723,4.7666,4.7699,4.7713,4.7718,4.7725,4.7659,4.7766,4.7946,4.7966,4.7733,4.7731,4.7729,0,4.7211,4.731,4.7399,4.7424,4.7475,4.7517,4.754,4.758,4.7617,4.7668,4.7692,4.7751,4.7783,4.7828,4.7834,4.7791,4.7943,4.7884,4.7951,4.7951,4.7983,4.7981,4.8172,4.8004,4.8004,4.8003,4.8003,0,4.7353,4.7432,4.7447,4.7502,4.759,4.7591,4.7678,4.7698,4.7734,4.7793,4.7777,4.7832,4.7837,4.7895,4.79,4.7988,4.8003,4.8011,4.8011,4.8013,4.8012,4.8034,4.8025,4.8009,4.8007,4.8006,4.8006,0,4.7483,4.7496,4.7592,4.7634,4.7647,4.771,4.7746,4.7799,4.7813,4.7888,4.7906,4.7927,4.7994,4.8005,4.8084,4.8088,4.8194,4.8185,4.818,4.8179,4.8245,4.8239,4.8457,4.8487,4.8299,4.8301,4.8303,0,4.7573,4.7633,4.7683,4.7721,4.7747,4.781,4.7849,4.7853,4.7894,4.7949,4.7996,4.8062,4.8115,4.8224,4.8247,4.8308,4.8301,4.8373,4.8309,4.831,4.8303,4.8299,4.8306,4.8385,4.8387,4.8389,4.839,0,4.7732,4.7736,4.7793,4.7853,4.79,4.7947,4.7992,4.8025,4.8035,4.8083,4.8152,4.8193,4.8275,4.8341,4.8403,4.8427,4.8411,4.841,4.8429,4.8431,4.8426,4.8431,4.8214,4.8405,4.8403,4.8402,4.8401,4.8401,4.7845,4.7899,4.7943,4.8007,4.8042,4.8084,4.8137,4.8158,4.8216,4.8284,4.8283,4.836,4.8403,4.8484,4.8513,4.8573,4.855,4.8577,4.8584,4.8591,4.8598,4.8416,4.8584,4.8584,4.8584,4.8583,4.8583,0,4.8004,4.8032,4.8091,4.8155,4.8206,4.8188,4.8237,4.8281,4.8349,4.8392,4.8445,4.8526,4.8591,4.862,4.8684,4.8727,4.8722,4.8744,4.8741,4.8747,4.8614,4.8592,4.8748,4.8748,4.8748,4.8748,4.8748,4.8748,4.8093,4.8183,4.8193,4.8301,4.8328,4.8403,4.8433,4.8473,4.8508,4.8599,4.8653,4.8672,4.871,4.8777,4.8837,4.8844,4.8868,4.8894,4.8898,4.8773,4.8756,4.8741,4.872,4.89,4.89,4.9026,4.9028,4.9028]},{"header":{"parameterUnit":"m.s-1","parameterCategory":1,"la1":30.2991,"la2":30.254,"lo1":-89.0895,"lo2":-89.0444,"dy":0.0017,"dx":0.0017,"nx":28,"ny":28,"refTime":"2024-03-23T09:00:00:Z","depth":0,"parameterNumber":3,"parameterNumberName":"V-component_of_WINDS"},"data":[0,0,0,0,0,0,0,0,0,0,0,0,0,0,0,0,0,0,0,0,0,0,0,0,0,0,0,0,0,0,0,0,0,0,0,0,0,0,0,0,0,0,0,0,0,0,0,0,0,0,0,0,0,0,0,0,0,0,-5.9549,-5.955,0,-5.961,-5.9611,-5.9611,-5.9542,-5.9539,-5.9537,-5.9534,-5.9594,-5.9598,-5.9601,0,0,0,0,0,0,0,0,0,0,0,0,0,-5.9371,-5.9374,-5.9549,-5.955,-5.955,-5.961,-5.9611,-5.9611,-5.9542,-5.9539,-5.9536,-5.9533,-5.9592,-5.9597,-5.9602,0,0,0,0,0,0,0,0,0,0,0,0,0,-5.9442,-5.9376,-5.9549,-5.9523,-5.9521,-5.961,-5.9611,-5.9612,-5.9543,-5.9539,-5.9535,-5.9532,-5.9591,-5.9597,-5.9603,-5.9718,0,0,-5.9621,-5.9624,0,0,0,0,0,0,0,0,-5.9438,-5.9448,-5.9526,-5.9525,-5.9523,-5.9564,-5.957,-5.9647,-5.9544,-5.9535,-5.9534,-5.953,-5.9587,-5.9593,-5.9613,-5.9721,-5.9723,-5.9621,-5.9625,-5.9628,-5.9629,0,0,0,0,0,0,0,-5.9433,-5.9445,-5.9573,-5.9527,-5.9526,-5.9508,-5.9514,-5.9584,-5.9582,-5.9535,-5.953,-5.9539,-5.9585,-5.9607,-5.9614,-5.9724,-5.9621,-5.9627,-5.963,-5.9633,-5.9931,-5.9935,0,0,0,0,0,0,-5.9431,-5.9441,-5.9571,-5.9575,-5.947,-5.9514,-5.9521,-5.9555,-5.9581,-5.9581,-5.9542,-5.9535,-5.9599,-5.9607,-5.9616,-5.9753,-5.9628,-5.9633,-5.9637,-5.9927,-5.9932,-5.9937,0,0,0,0,0,0,-5.9428,-5.9443,-5.9568,-5.9507,-5.9521,-5.9522,-5.9561,-5.9558,-5.958,-5.9586,-5.9585,-5.9565,-5.9596,-5.9607,-5.9694,-5.9754,-5.9636,-5.9641,-5.9922,-5.9929,-5.9935,-6.0029,0,0,0,0,0,0,-5.9423,-5.9442,-5.9486,-5.9508,-5.9525,-5.9646,-5.9564,-5.9562,-5.9591,-5.9583,-5.9607,-5.9608,-5.9594,-5.9685,-5.97,-5.976,-5.9646,-5.9916,-5.9925,-5.9933,-6.0021,-6.0038,-6.0053,0,0,0,0,0,-5.9417,-5.951,-5.9489,-5.9505,-5.958,-5.965,-5.9659,-5.9642,-5.9596,-5.9641,-5.9645,-5.9607,-5.9746,-5.9694,-5.971,-5.9774,-5.9912,-5.9922,-5.9932,-6.0013,-6.0035,-6.0053,0,0,0,0,0,0,-5.9493,-5.9512,-5.9489,-5.9592,-5.962,-5.9638,-5.9693,-5.9665,-5.9706,-5.9696,-5.9673,-5.9679,-5.9771,-5.9781,-5.9724,-5.9888,-5.9821,-5.9835,-5.9878,-5.9898,-5.9914,-5.991,-5.9651,0,0,0,0,0,-5.9522,-5.9578,-5.9591,-5.9681,-5.9696,-5.9693,-5.9722,-5.9707,-5.9735,-5.9746,-5.9756,-5.9783,-5.9833,-5.9866,-5.9912,-6.0022,-6.0027,-6.0074,-6.009,-6.0103,-6.0115,-6.0175,-6.0196,-5.9969,-5.9969,-5.9969,0,0,-5.9582,-5.96,-5.9636,-5.9697,-5.9716,-5.9774,-5.9703,-5.9766,-5.9809,-5.9755,-5.9838,-5.9847,-5.9875,-5.9975,-6.0019,-5.9986,-6.0179,-6.0116,-6.0126,-6.0131,-6.0187,-6.0209,-6.0228,-5.9975,-5.9974,-5.9973,0,0,-5.9722,-5.974,-5.9818,-5.984,-5.9872,-5.9869,-5.9888,-5.9911,-5.9915,-5.9998,-5.9959,-6.0009,-6.0095,-6.0118,-6.0141,-6.0292,-6.0259,-6.0307,-6.0392,-6.0451,-6.0469,-6.0484,-6.0539,-6.0558,-6.0319,-6.0319,-6.0319,0,-5.9792,-5.9878,-5.9861,-5.9928,-5.9956,-5.9912,-5.999,-6.0012,-6.0057,-6.0077,-6.004,-6.0149,-6.0165,-6.0269,-6.0307,-6.0326,-6.0347,-6.0304,-6.0468,-6.0483,-6.0498,-6.0549,-6.057,-6.0325,-6.0324,-6.0324,-6.0323,0,-5.9964,-6.0025,-6.0083,-6.013,-6.0165,-6.0237,-6.023,-6.0267,-6.025,-6.0252,-6.0338,-6.0356,-6.0406,-6.043,-6.0412,-6.0532,-6.0511,-6.0471,-6.0404,-6.0525,-6.0574,-6.0593,-6.0333,-6.0331,-6.033,-6.0328,0,0,-6.0151,-6.0189,-6.0211,-6.0232,-6.0265,-6.0311,-6.0382,-6.0432,-6.0465,-6.0498,-6.0557,-6.0632,-6.0596,-6.0623,-6.0608,-6.066,-6.0779,-6.0613,-6.0614,-6.0644,-6.0913,-6.0943,-6.0966,-6.0758,-6.0762,-6.0764,-6.0911,0,-6.0292,-6.0416,-6.0403,-6.0521,-6.0577,-6.0537,-6.0599,-6.0626,-6.063,-6.0678,-6.0681,-6.0735,-6.0683,-6.0699,-6.0749,-6.0754,-6.0833,-6.0743,-6.0812,-6.0815,-6.0806,-6.0991,-6.1022,-6.116,-6.093,-6.0933,-6.0935,0,-6.0471,-6.0513,-6.0637,-6.0663,-6.0686,-6.0742,-6.0788,-6.0835,-6.0865,-6.0864,-6.0895,-6.0872,-6.0943,-6.0875,-6.0973,-6.0913,-6.094,-6.0948,-6.0953,-6.0958,-6.0882,-6.1002,-6.1203,-6.1224,-6.0964,-6.0962,-6.096,0,-6.0596,-6.0683,-6.0769,-6.0788,-6.0821,-6.0862,-6.0877,-6.0903,-6.0935,-6.0975,-6.0995,-6.1042,-6.1068,-6.1105,-6.1096,-6.1047,-6.1197,-6.1128,-6.1198,-6.1198,-6.123,-6.1228,-6.1439,-6.1249,-6.1248,-6.1248,-6.1247,0,-6.0754,-6.0832,-6.0826,-6.0879,-6.0965,-6.095,-6.1035,-6.1045,-6.107,-6.1123,-6.1091,-6.1142,-6.1127,-6.1177,-6.117,-6.1253,-6.1265,-6.1266,-6.1263,-6.1269,-6.1269,-6.1286,-6.1276,-6.1253,-6.1252,-6.1251,-6.125,0,-6.0908,-6.0907,-6.0998,-6.1023,-6.1031,-6.1093,-6.1113,-6.1163,-6.1165,-6.1234,-6.125,-6.1253,-6.1311,-6.1305,-6.1369,-6.1365,-6.1468,-6.1453,-6.1458,-6.1455,-6.1526,-6.1519,-6.1755,-6.1785,-6.1575,-6.1577,-6.1579,0,-6.1009,-6.1068,-6.1099,-6.1134,-6.1153,-6.1209,-6.1241,-6.1229,-6.1265,-6.1305,-6.135,-6.1405,-6.1449,-6.1543,-6.1551,-6.16,-6.1587,-6.1666,-6.1594,-6.1599,-6.1589,-6.1585,-6.1592,-6.168,-6.1683,-6.1684,-6.1686,0,-6.1188,-6.1185,-6.1234,-6.1285,-6.1325,-6.1364,-6.1398,-6.1428,-6.142,-6.1461,-6.1521,-6.1555,-6.1622,-6.1678,-6.1725,-6.174,-6.1712,-6.1709,-6.1728,-6.1734,-6.1735,-6.1736,-6.1497,-6.1703,-6.1702,-6.17,-6.1699,-6.1699,-6.1318,-6.137,-6.1401,-6.1457,-6.1483,-6.1517,-6.1565,-6.1575,-6.1625,-6.1679,-6.1669,-6.1736,-6.1766,-6.1827,-6.1847,-6.19,-6.1871,-6.1898,-6.1905,-6.1912,-6.192,-6.1727,-6.1908,-6.1907,-6.1907,-6.1907,-6.1906,0,-6.1496,-6.1515,-6.1567,-6.1618,-6.1663,-6.1634,-6.1672,-6.1711,-6.1771,-6.1802,-6.1847,-6.1916,-6.197,-6.1983,-6.2035,-6.2075,-6.2063,-6.2089,-6.2086,-6.209,-6.1943,-6.1922,-6.2097,-6.2097,-6.2097,-6.2097,-6.2097,-6.2097,-6.1594,-6.168,-6.1682,-6.178,-6.1798,-6.1865,-6.1889,-6.192,-6.1945,-6.2025,-6.207,-6.2079,-6.2103,-6.2157,-6.2205,-6.2208,-6.2228,-6.2259,-6.2257,-6.2119,-6.21,-6.2082,-6.2061,-6.2264,-6.2264,-6.2399,-6.24,-6.2401]}]]